Time,TemperatureF,DewpointF,PressureIn,WindDirection,WindDirectionDegrees,WindSpeedMPH,WindSpeedGustMPH,Humidity,HourlyPrecipIn,Conditions,Clouds,dailyrainin,SoftwareType,DateUTC
2013-12-04 00:22:00,28.0,24.0,29.75,North,355,19.0,25.0,86,0.00,,,0.00,,2013-12-04 06:22:00,
2013-12-04 00:42:00,28.0,25.0,29.76,North,0,21.0,26.0,87,0.00,,,0.00,,2013-12-04 06:42:00,
2013-12-04 00:52:00,28.0,25.0,29.76,NNW,328,15.0,23.0,88,0.00,,,0.00,,2013-12-04 06:52:00,
2013-12-04 01:12:00,27.0,24.0,29.75,NNW,331,24.0,28.0,89,0.00,,,0.00,,2013-12-04 07:12:00,
2013-12-04 01:22:00,26.0,23.0,29.76,NNW,344,22.0,28.0,89,0.00,,,0.00,,2013-12-04 07:22:00,
2013-12-04 01:42:00,26.0,23.0,29.74,North,350,21.0,25.0,90,0.00,,,0.00,,2013-12-04 07:42:00,
2013-12-04 01:52:00,26.0,23.0,29.75,NNW,346,20.0,26.0,90,0.00,,,0.00,,2013-12-04 07:52:00,
2013-12-04 02:11:00,25.0,22.0,29.74,North,0,21.0,28.0,89,0.00,,,0.00,,2013-12-04 08:11:00,
2013-12-04 02:21:00,25.0,22.0,29.74,North,349,19.0,26.0,89,0.00,,,0.00,,2013-12-04 08:21:00,
2013-12-04 02:42:00,25.0,22.0,29.74,NNW,329,21.0,26.0,90,0.00,,,0.00,,2013-12-04 08:42:00,
2013-12-04 02:52:00,24.0,22.0,29.75,NNW,334,17.0,22.0,90,0.00,,,0.00,,2013-12-04 08:52:00,
2013-12-04 03:11:00,24.0,22.0,29.75,North,355,17.0,30.0,90,0.00,,,0.00,,2013-12-04 09:11:00,
2013-12-04 03:22:00,23.0,21.0,29.74,North,355,22.0,28.0,91,0.00,,,0.00,,2013-12-04 09:22:00,
2013-12-04 03:43:00,23.0,21.0,29.74,North,349,20.0,33.0,92,0.00,,,0.00,,2013-12-04 09:43:00,
2013-12-04 03:53:00,23.0,21.0,29.75,NNW,345,17.0,26.0,92,0.00,,,0.00,,2013-12-04 09:53:00,
2013-12-04 04:12:00,22.0,20.0,29.77,NNW,328,21.0,31.0,92,0.00,,,0.00,,2013-12-04 10:12:00,
2013-12-04 04:23:00,22.0,20.0,29.78,NNW,343,23.0,30.0,91,0.00,,,0.00,,2013-12-04 10:23:00,
2013-12-04 04:42:00,21.0,19.0,29.78,NNW,335,23.0,29.0,92,0.00,,,0.00,,2013-12-04 10:42:00,
2013-12-04 04:53:00,21.0,19.0,29.78,NW,326,22.0,31.0,91,0.00,,,0.00,,2013-12-04 10:53:00,
2013-12-04 05:12:00,20.0,18.0,29.77,NNW,344,20.0,26.0,92,0.00,,,0.00,,2013-12-04 11:12:00,
2013-12-04 05:22:00,20.0,18.0,29.75,North,5,17.0,26.0,92,0.00,,,0.00,,2013-12-04 11:22:00,
2013-12-04 05:42:00,20.0,18.0,29.76,NNW,346,21.0,26.0,91,0.00,,,0.00,,2013-12-04 11:42:00,
2013-12-04 05:53:00,20.0,18.0,29.78,NNW,327,17.0,31.0,91,0.00,,,0.00,,2013-12-04 11:53:00,
2013-12-04 06:12:00,19.0,17.0,29.77,NNW,344,20.0,26.0,90,0.00,,,0.00,,2013-12-04 12:12:00,
2013-12-04 06:22:00,19.0,17.0,29.78,NNW,338,23.0,26.0,91,0.00,,,0.00,,2013-12-04 12:22:00,
2013-12-04 06:42:00,19.0,17.0,29.78,NNW,345,20.0,26.0,90,0.00,,,0.00,,2013-12-04 12:42:00,
2013-12-04 06:52:00,19.0,17.0,29.79,NNW,345,22.0,26.0,90,0.00,,,0.00,,2013-12-04 12:52:00,
2013-12-04 07:11:00,19.0,17.0,29.79,North,0,14.0,23.0,91,0.00,,,0.00,,2013-12-04 13:11:00,
2013-12-04 07:22:00,19.0,17.0,29.79,NNW,342,16.0,23.0,91,0.00,,,0.00,,2013-12-04 13:22:00,
2013-12-04 07:42:00,19.0,17.0,29.80,NNW,334,13.0,22.0,91,0.00,,,0.00,,2013-12-04 13:42:00,
2013-12-04 07:52:00,19.0,17.0,29.80,NNW,336,18.0,24.0,91,0.00,,,0.00,,2013-12-04 13:52:00,
2013-12-04 08:12:00,18.0,16.0,29.81,NW,324,21.0,28.0,90,0.00,,,0.00,,2013-12-04 14:12:00,
2013-12-04 08:22:00,18.0,16.0,29.81,NNW,331,20.0,30.0,90,0.00,,,0.00,,2013-12-04 14:22:00,
2013-12-04 08:42:00,18.0,15.0,29.83,NNW,342,21.0,31.0,88,0.00,,,0.00,,2013-12-04 14:42:00,
2013-12-04 08:52:00,18.0,15.0,29.83,NNW,328,23.0,29.0,87,0.00,,,0.00,,2013-12-04 14:52:00,
2013-12-04 09:12:00,18.0,15.0,29.84,NW,323,19.0,29.0,88,0.00,,,0.00,,2013-12-04 15:12:00,
2013-12-04 09:22:00,18.0,15.0,29.85,NW,326,22.0,31.0,87,0.00,,,0.00,,2013-12-04 15:22:00,
2013-12-04 09:43:00,18.0,15.0,29.85,NNW,328,19.0,30.0,86,0.00,,,0.00,,2013-12-04 15:43:00,
2013-12-04 09:53:00,18.0,15.0,29.85,NNW,338,22.0,29.0,86,0.00,,,0.00,,2013-12-04 15:53:00,
2013-12-04 10:13:00,18.0,15.0,29.85,NW,321,22.0,28.0,86,0.00,,,0.00,,2013-12-04 16:13:00,
2013-12-04 10:23:00,18.0,14.0,29.85,NW,313,21.0,26.0,84,0.00,,,0.00,,2013-12-04 16:23:00,
2013-12-04 10:43:00,18.0,14.0,29.85,NW,320,21.0,26.0,84,0.00,,,0.00,,2013-12-04 16:43:00,
2013-12-04 10:53:00,18.0,14.0,29.86,NW,325,17.0,29.0,83,0.00,,,0.00,,2013-12-04 16:53:00,
2013-12-04 11:12:00,17.0,13.0,29.86,NW,322,17.0,26.0,83,0.00,,,0.00,,2013-12-04 17:12:00,
2013-12-04 11:22:00,17.0,12.0,29.86,NNW,330,22.0,29.0,82,0.00,,,0.00,,2013-12-04 17:22:00,
2013-12-04 11:42:00,17.0,12.0,29.86,NW,312,21.0,28.0,82,0.00,,,0.00,,2013-12-04 17:42:00,
2013-12-04 11:52:00,17.0,12.0,29.86,NW,313,22.0,30.0,82,0.00,,,0.00,,2013-12-04 17:52:00,
2013-12-04 12:12:00,17.0,12.0,29.85,NNW,330,21.0,30.0,81,0.00,,,0.00,,2013-12-04 18:12:00,
2013-12-04 12:22:00,17.0,12.0,29.85,NW,316,22.0,31.0,79,0.00,,,0.00,,2013-12-04 18:22:00,
2013-12-04 12:42:00,18.0,12.0,29.85,NW,317,20.0,30.0,78,0.00,,,0.00,,2013-12-04 18:42:00,
2013-12-04 12:52:00,18.0,12.0,29.85,NW,317,20.0,30.0,78,0.00,,,0.00,,2013-12-04 18:52:00,
2013-12-04 13:11:00,18.0,12.0,29.88,NW,308,18.0,26.0,76,0.00,,,0.00,,2013-12-04 19:11:00,
2013-12-04 13:22:00,18.0,11.0,29.88,NW,314,22.0,28.0,75,0.00,,,0.00,,2013-12-04 19:22:00,
2013-12-04 13:42:00,18.0,11.0,29.88,NW,309,20.0,29.0,74,0.00,,,0.00,,2013-12-04 19:42:00,
2013-12-04 13:52:00,18.0,11.0,29.87,NW,319,23.0,31.0,72,0.00,,,0.00,,2013-12-04 19:52:00,
2013-12-04 14:12:00,19.0,11.0,29.87,NNW,342,24.0,31.0,72,0.00,,,0.00,,2013-12-04 20:12:00,
2013-12-04 14:22:00,19.0,11.0,29.87,NW,311,21.0,28.0,71,0.00,,,0.00,,2013-12-04 20:22:00,
2013-12-04 14:42:00,20.0,12.0,29.88,NW,311,17.0,26.0,70,0.00,,,0.00,,2013-12-04 20:42:00,
2013-12-04 14:52:00,20.0,12.0,29.89,NW,312,20.0,28.0,70,0.00,,,0.00,,2013-12-04 20:52:00,
2013-12-04 15:11:00,20.0,11.0,29.89,NNW,329,25.0,30.0,66,0.00,,,0.00,,2013-12-04 21:11:00,
2013-12-04 15:22:00,21.0,11.0,29.89,WNW,298,19.0,29.0,65,0.00,,,0.00,,2013-12-04 21:22:00,
2013-12-04 15:44:00,21.0,11.0,29.91,NW,326,16.0,30.0,64,0.00,,,0.00,,2013-12-04 21:44:00,
2013-12-04 15:54:00,21.0,11.0,29.91,NW,326,16.0,30.0,64,0.00,,,0.00,,2013-12-04 21:54:00,
2013-12-04 16:14:00,22.0,11.0,29.92,NW,320,22.0,29.0,61,0.00,,,0.00,,2013-12-04 22:14:00,
2013-12-04 16:23:00,22.0,11.0,29.94,NNW,327,19.0,28.0,61,0.00,,,0.00,,2013-12-04 22:23:00,
2013-12-04 16:43:00,21.0,10.0,29.95,NNW,336,24.0,31.0,61,0.00,,,0.00,,2013-12-04 22:43:00,
2013-12-04 16:53:00,20.0,9.0,29.95,NNW,330,24.0,32.0,61,0.00,,,0.00,,2013-12-04 22:53:00,
2013-12-04 17:12:00,20.0,9.0,29.96,NW,318,18.0,29.0,62,0.00,,,0.00,,2013-12-04 23:12:00,
2013-12-04 17:22:00,19.0,9.0,29.97,NW,321,24.0,31.0,63,0.00,,,0.00,,2013-12-04 23:22:00,
2013-12-04 17:42:00,18.0,8.0,29.98,NW,305,24.0,31.0,64,0.00,,,0.00,,2013-12-04 23:42:00,
2013-12-04 17:53:00,18.0,8.0,30.01,NW,317,16.0,26.0,64,0.00,,,0.00,,2013-12-04 23:53:00,
2013-12-04 18:11:00,18.0,8.0,30.00,NW,316,23.0,29.0,65,0.00,,,0.00,,2013-12-05 00:11:00,
2013-12-04 18:22:00,17.0,7.0,30.00,NW,319,21.0,29.0,65,0.00,,,0.00,,2013-12-05 00:22:00,
2013-12-04 18:42:00,17.0,7.0,30.01,NW,314,21.0,28.0,65,0.00,,,0.00,,2013-12-05 00:42:00,
2013-12-04 18:52:00,17.0,8.0,30.02,NW,309,18.0,29.0,66,0.00,,,0.00,,2013-12-05 00:52:00,
2013-12-04 19:11:00,16.0,6.0,30.05,NW,315,22.0,32.0,65,0.00,,,0.00,,2013-12-05 01:11:00,
2013-12-04 19:22:00,16.0,7.0,30.04,NNW,332,20.0,32.0,66,0.00,,,0.00,,2013-12-05 01:22:00,
2013-12-04 19:42:00,16.0,7.0,30.04,NW,309,25.0,31.0,66,0.00,,,0.00,,2013-12-05 01:42:00,
2013-12-04 19:52:00,15.0,6.0,30.05,NNW,335,20.0,35.0,66,0.00,,,0.00,,2013-12-05 01:52:00,
2013-12-04 20:11:00,15.0,6.0,30.08,NNW,334,16.0,35.0,66,0.00,,,0.00,,2013-12-05 02:11:00,
2013-12-04 20:22:00,15.0,5.0,30.06,NNW,348,24.0,28.0,65,0.00,,,0.00,,2013-12-05 02:22:00,
2013-12-04 21:12:00,15.0,6.0,30.11,NW,320,22.0,33.0,66,0.00,,,0.00,,2013-12-05 03:12:00,
2013-12-04 21:22:00,15.0,5.0,30.15,NW,320,21.0,36.0,65,0.00,,,0.00,,2013-12-05 03:22:00,
2013-12-04 21:43:00,15.0,6.0,30.14,NW,326,26.0,35.0,66,0.00,,,0.00,,2013-12-05 03:43:00,
2013-12-04 21:54:00,15.0,6.0,30.14,NW,326,26.0,35.0,66,0.00,,,0.00,,2013-12-05 03:54:00,
2013-12-04 22:13:00,15.0,5.0,30.17,NNW,336,24.0,32.0,65,0.00,,,0.00,,2013-12-05 04:13:00,
2013-12-04 22:23:00,15.0,6.0,30.18,NNW,335,22.0,30.0,66,0.00,,,0.00,,2013-12-05 04:23:00,
2013-12-04 22:43:00,15.0,5.0,30.20,NNW,332,24.0,33.0,65,0.00,,,0.00,,2013-12-05 04:43:00,
2013-12-04 22:53:00,15.0,5.0,30.14,NNW,333,22.0,29.0,65,0.00,,,0.00,,2013-12-05 04:53:00,
2013-12-04 23:13:00,15.0,6.0,30.21,NW,318,14.0,24.0,66,0.00,,,0.00,,2013-12-05 05:13:00,
2013-12-04 23:23:00,15.0,6.0,30.23,NW,319,17.0,25.0,66,0.00,,,0.00,,2013-12-05 05:23:00,
2013-12-04 23:43:00,15.0,5.0,30.24,NW,322,22.0,28.0,65,0.00,,,0.00,,2013-12-05 05:43:00,
2013-12-04 23:52:00,15.0,5.0,30.23,NW,313,18.0,28.0,63,0.00,,,0.00,,2013-12-05 05:52:00,